Date String (YYYY-MM-DD hh:mm:ss) UTC,Instrument flags,Ambient pressure (hPa),Sample flow (lpm),Bypass flow (lpm),Sample temperature (°C),Ambient temperature (°C),ASC tube jacket temperature (°C),LED temperature (°C),Box temperature (°C),Sample RH (%),Span deviation,Mass concentration (μg/m³),Mass concentration (μg/m³),Mass concentration (μg/m³)
DateTimeUTC,F1_M11,P_M11,Q1_M11,Q2_M11,T1_M11,T2_M11,T3_M11,T4_M11,T5_M11,U1_M11,ZSPAN_M11,X2_M11,X0_M11,X1_M11
2023-03-07 04:00:00,,0825.6,4.99,0.00,22.1,22.3,00.0,30.8,24.0,15.7,0000.0,0005.07,0008.91,0004.82
2023-03-07 04:01:00,,0825.6,4.99,0.00,22.1,21.8,00.0,30.8,23.9,15.7,0000.0,0005.07,0009.33,0004.80
2023-03-07 04:02:00,,0825.6,4.98,0.00,22.1,21.3,00.0,30.8,23.8,15.7,0000.0,0005.08,0010.00,0004.79
2023-03-07 04:03:00,,0825.6,5.00,0.00,22.1,21.0,00.0,30.8,23.7,15.7,0000.0,0005.06,0009.94,0004.79
2023-03-07 04:04:00,,0825.5,5.00,0.00,22.0,20.7,00.0,30.8,23.6,15.7,0000.0,0005.05,0009.88,0004.79
2023-03-07 04:05:00,,0825.5,5.01,0.00,22.0,20.5,00.0,30.8,23.6,15.7,0000.0,0005.06,0010.20,0004.78
2023-03-07 04:06:00,,0825.5,5.00,0.00,22.0,20.3,00.0,30.8,23.5,15.8,0000.0,0005.04,0010.83,0004.77
2023-03-07 04:07:00,,0825.5,5.00,0.00,21.9,20.2,00.0,30.8,23.4,15.8,0000.0,0005.04,0010.83,0004.78
2023-03-07 04:08:00,,0825.5,5.01,0.00,21.9,20.1,00.0,30.8,23.4,15.8,0000.0,0005.04,0010.82,0004.78
2023-03-07 04:09:00,,0825.5,5.01,0.00,21.9,20.0,00.0,30.8,23.4,15.8,0000.0,0005.06,0010.89,0004.79
2023-03-07 04:10:00,,0825.5,5.00,0.00,21.9,20.0,00.0,30.7,23.4,15.9,0000.0,0005.06,0010.80,0004.79
2023-03-07 04:11:00,,0825.5,5.00,0.00,21.8,19.9,00.0,30.7,23.3,15.9,0000.0,0005.05,0010.48,0004.79
2023-03-07 04:12:00,,0825.5,5.02,0.00,21.8,20.1,00.0,30.7,23.4,15.9,0000.0,0005.04,0010.34,0004.79
2023-03-07 04:13:00,,0825.5,5.02,0.00,21.9,21.2,00.0,30.7,23.7,15.9,0000.0,0005.05,0009.60,0004.79
2023-03-07 04:14:00,,0825.6,5.03,0.00,22.0,22.4,00.0,30.7,24.0,15.8,0000.0,0005.04,0009.58,0004.78
2023-03-07 04:15:00,,0825.6,4.98,0.00,22.1,22.6,00.0,30.7,24.1,15.7,0000.0,0005.04,0009.57,0004.77
2023-03-07 04:16:00,,0825.6,5.00,0.00,22.2,22.1,00.0,30.8,24.0,15.6,0000.0,0005.04,0009.41,0004.77
2023-03-07 04:17:00,,0825.6,5.02,0.00,22.2,21.6,00.0,30.8,23.9,15.7,0000.0,0005.05,0008.60,0004.78
2023-03-07 04:18:00,,0825.5,5.00,0.00,22.1,21.2,00.0,30.8,23.8,15.7,0000.0,0005.06,0008.68,0004.79
2023-03-07 04:19:00,,0825.5,5.00,0.00,22.1,20.9,00.0,30.8,23.7,15.7,0000.0,0005.07,0008.77,0004.79
2023-03-07 04:20:00,,0825.5,4.99,0.00,22.0,20.6,00.0,30.8,23.6,15.7,0000.0,0005.07,0008.60,0004.78
2023-03-07 04:21:00,,0825.5,5.01,0.00,22.0,20.3,00.0,30.8,23.6,15.7,0000.0,0005.08,0008.22,0004.79
2023-03-07 04:22:00,,0825.5,5.01,0.00,22.0,20.1,00.0,30.8,23.5,15.8,0000.0,0005.08,0008.17,0004.79
2023-03-07 04:23:00,,0825.5,5.00,0.00,21.9,20.0,00.0,30.8,23.5,15.9,0000.0,0005.06,0007.99,0004.78
2023-03-07 04:24:00,,0825.5,5.00,0.00,21.9,20.0,00.0,30.8,23.4,15.9,0000.0,0005.04,0007.91,0004.78
2023-03-07 04:25:00,,0825.5,5.00,0.00,21.9,19.9,00.0,30.7,23.4,16.0,0000.0,0005.04,0008.02,0004.79
2023-03-07 04:26:00,,0825.5,5.00,0.00,21.8,19.8,00.0,30.7,23.4,16.0,0000.0,0005.04,0008.06,0004.80
2023-03-07 04:27:00,,0825.5,5.00,0.00,21.8,19.8,00.0,30.7,23.3,16.0,0000.0,0005.03,0008.03,0004.80
2023-03-07 04:28:00,,0825.5,5.01,0.00,21.8,20.5,00.0,30.7,23.5,16.0,0000.0,0005.02,0008.03,0004.79
2023-03-07 04:29:00,,0825.6,4.96,0.00,21.9,21.8,00.0,30.7,23.8,15.9,0000.0,0005.03,0008.00,0004.79
2023-03-07 04:30:00,,0825.5,4.99,0.00,22.0,22.6,00.0,30.7,24.0,15.9,0000.0,0005.04,0008.01,0004.78
2023-03-07 04:31:00,,0825.5,5.00,0.00,22.1,22.3,00.0,30.7,24.0,15.8,0000.0,0005.04,0008.02,0004.77
2023-03-07 04:32:00,,0825.5,4.98,0.00,22.1,21.8,00.0,30.8,23.9,15.8,0000.0,0005.02,0008.59,0004.76
2023-03-07 04:33:00,,0825.5,5.00,0.00,22.1,21.4,00.0,30.8,23.8,15.8,0000.0,0005.02,0008.75,0004.77
2023-03-07 04:34:00,,0825.5,5.00,0.00,22.1,21.1,00.0,30.8,23.8,15.8,0000.0,0005.05,0009.14,0004.77
2023-03-07 04:35:00,,0825.5,4.99,0.00,22.1,20.9,00.0,30.8,23.8,15.8,0000.0,0005.08,0009.19,0004.79
2023-03-07 04:36:00,,0825.6,4.99,0.00,22.1,20.7,00.0,30.8,23.7,15.8,0000.0,0005.12,0009.15,0004.80
2023-03-07 04:37:00,,0825.6,5.00,0.00,22.0,20.5,00.0,30.8,23.7,15.8,0000.0,0005.11,0009.13,0004.79
2023-03-07 04:38:00,,0825.5,4.98,0.00,22.0,20.4,00.0,30.8,23.6,15.8,0000.0,0005.10,0009.32,0004.78
2023-03-07 04:39:00,,0825.5,5.01,0.00,22.0,20.4,00.0,30.8,23.6,15.8,0000.0,0005.10,0009.35,0004.78
2023-03-07 04:40:00,,0825.4,4.98,0.00,22.0,20.4,00.0,30.8,23.6,15.8,0000.0,0005.06,0009.26,0004.77
2023-03-07 04:41:00,,0825.5,4.99,0.00,22.0,20.3,00.0,30.8,23.6,15.9,0000.0,0005.05,0009.32,0004.77
2023-03-07 04:42:00,,0825.5,5.00,0.00,21.9,20.2,00.0,30.8,23.5,15.9,0000.0,0005.04,0009.34,0004.76
2023-03-07 04:43:00,,0825.4,5.00,0.00,21.9,20.2,00.0,30.8,23.5,15.9,0000.0,0005.04,0008.99,0004.76
2023-03-07 04:44:00,,0825.4,5.01,0.00,21.9,20.2,00.0,30.7,23.5,15.9,0000.0,0005.03,0009.17,0004.75
2023-03-07 04:45:00,,0825.4,5.00,0.00,21.9,20.2,00.0,30.7,23.5,16.0,0000.0,0005.03,0008.81,0004.75
2023-03-07 04:46:00,,0825.4,5.03,0.00,21.9,20.8,00.0,30.7,23.6,15.9,0000.0,0005.03,0008.81,0004.73
2023-03-07 04:47:00,,0825.4,4.96,0.00,22.0,22.0,00.0,30.7,23.9,15.9,0000.0,0005.00,0009.03,0004.72
2023-03-07 04:48:00,,0825.4,4.99,0.00,22.2,23.0,00.0,30.8,24.2,15.8,0000.0,0004.99,0009.09,0004.71
2023-03-07 04:49:00,,0825.5,4.99,0.00,22.2,22.8,00.0,30.8,24.2,15.7,0000.0,0005.00,0008.97,0004.70
2023-03-07 04:50:00,,0825.4,4.99,0.00,22.3,22.3,00.0,30.9,24.1,15.7,0000.0,0005.01,0008.96,0004.70
2023-03-07 04:51:00,,0825.4,4.96,0.00,22.3,21.9,00.0,30.9,24.1,15.6,0000.0,0005.01,0008.95,0004.69
2023-03-07 04:52:00,,0825.4,4.99,0.00,22.3,21.6,00.0,30.9,24.0,15.6,0000.0,0004.99,0008.87,0004.69
2023-03-07 04:53:00,,0825.5,4.99,0.00,22.3,21.4,00.0,30.9,24.0,15.6,0000.0,0005.00,0009.10,0004.69
2023-03-07 04:54:00,,0825.4,5.01,0.00,22.3,21.2,00.0,30.9,24.0,15.6,0000.0,0005.03,0009.31,0004.71
2023-03-07 04:55:00,,0825.5,5.00,0.00,22.3,21.0,00.0,30.9,23.9,15.6,0000.0,0005.03,0008.99,0004.71
2023-03-07 04:56:00,,0825.4,5.01,0.00,22.2,20.8,00.0,30.9,23.8,15.7,0000.0,0005.05,0009.08,0004.72
2023-03-07 04:57:00,,0825.4,5.00,0.00,22.2,20.7,00.0,30.9,23.8,15.7,0000.0,0005.04,0009.06,0004.72
2023-03-07 04:58:00,,0825.4,5.01,0.00,22.2,20.5,00.0,30.9,23.7,15.9,0000.0,0005.06,0008.80,0004.75
2023-03-07 04:59:00,,0825.4,5.01,0.00,22.1,20.3,00.0,30.9,23.6,16.2,0000.0,0005.15,0008.77,0004.85
